Regional Weather Roundup
Issued by NWS

Home | Current Version | Previous Version | Text Only | Print | Product List | Glossary Off
Versions: 1 2 3 4 5 6 7 8 9 10 11 12 13 14 15 16 17 18 19 20 21 22 23 24 25 26 27 28 29 30 31 32 33 34 35 36 37 38 39 40 41 42 43 44 45 46 47 48 49 50

000
ASUS43 KDTX 302210
RWRMI
MICHIGAN HOURLY REGIONAL WEATHER ROUNDUP
NATIONAL WEATHER SERVICE DETROIT/PONTIAC MI
600 PM EDT THU JUL 30 2015

NOTE: "FAIR" INDICATES FEW OR NO CLOUDS BELOW 12,000 FEET WITH NO
SIGNIFICANT WEATHER AND/OR OBSTRUCTION TO VISIBILITY.

MIZ047>049-052>055-059>063-066>070-074>076-081>083-302300-
SOUTHEAST LOWER MICHIGAN

CITY           SKY/WX    TMP DP  RH WIND       PRES   REMARKS
ADRIAN         SUNNY     82  56  40 NW15G22   29.99S
ALMA           MOSUNNY   80  54  39 W16G24    29.94R
ANN ARBOR      SUNNY     83  56  39 W16G24    29.95S
BAD AXE        SUNNY     81  51  35 W16G25    29.88S
CARO           MOSUNNY   84  55  37 W16G22    29.89S
DETROIT CITY   SUNNY     85  55  35 NW13G23   29.91F
DETROIT        MOSUNNY   85  55  35 W18       29.93F
FLINT          MOSUNNY   86  55  34 W17G28    29.92F
GROSSE ILE     SUNNY     84  54  34 W16       29.92F
HILLSDALE      MOSUNNY   82  53  37 W15G25    30.01S
HOWELL         SUNNY     83  51  32 W10G21    29.95S

CITY           SKY/WX    TMP DP  RH WIND       PRES   REMARKS
JACKSON        SUNNY     80  56  43 W16       29.98S
LAMBERTVILLE   MOSUNNY   84  54  35 W10       29.97S
LANSING        SUNNY     83  57  41 W18G26    29.96F
LAPEER         FAIR      83  53  34 NW15      29.91S
MASON          SUNNY     80  55  42 W16G25    29.97S
MONROE         MOSUNNY   84  58  40 W13G20    29.94S
MT. CLEMENS    MOSUNNY   85  56  37 W16G23    29.89S
PONTIAC        MOSUNNY   83  55  38 W22G30    29.93S
PORT HOPE        N/A     84  52  33 W12G21    29.84S
PORT HURON     CLOUDY    82  57  42 W9        29.90F
TRI CITIES     MOSUNNY   84  54  35 W14       29.91R
MIDLAND        FAIR      85  51  30 W16G23    29.89S
TROY           SUNNY     85  52  31 NW18G24   29.94S
SAGINAW HB     MOSUNNY   84  52  32 W18G24    29.89S
$$
MIZ043>046-050>051-056>058-064>065-071>073-077>080-302300-
SOUTHWEST LOWER MICHIGAN

CITY           SKY/WX    TMP DP  RH WIND       PRES   REMARKS
BATTLE CREEK   MOSUNNY   83  56  39 W17       30.01S
BENTON HARBOR  SUNNY     84  59  42 W14       30.01F
BIG RAPIDS     MOSUNNY   82  49  32 W15G22    29.94S
COLDWATER      SUNNY     81  51  34 W14G21    30.01S
FREMONT        FAIR      83  51  32 W14       29.95S
HOLLAND        SUNNY     83  60  45 W13       29.99F
GRAND RAPIDS   MOSUNNY   84  55  36 W23G29    29.97F
IONIA          FAIR      83  55  37 W14G23    29.96S
KALAMAZOO      SUNNY     83  55  38 W17G23    30.00F
LUDINGTON      SUNNY     80  64  57 SW9       29.94F
MARSHALL       SUNNY     81  55  41 W10G23    29.99S
MOUNT PLEASANT MOSUNNY   85  52  31 W16G26    29.92S
MUSKEGON       MOSUNNY   81  47  30 W9        29.97F
SOUTH HAVEN    SUNNY     81  60  48 W10G16    30.01S
$$
MIZ016>042-302300-
NORTHERN LOWER MICHIGAN

CITY           SKY/WX    TMP DP  RH WIND       PRES   REMARKS
ALPENA         LGT RAIN  82  53  36 W12G23    29.85S
BEAVER ISLAND  SUNNY     76  53  44 NW8       29.89R
BELLAIRE       SUNNY     82  51  35 W9G20     29.89R
CADILLAC       MOSUNNY   82  53  36 W21G26    29.93F
CHARLEVOIX     SUNNY     76  62  61 W12       29.92S
FRANKFORT      SUNNY     81  62  53 W6        29.91S
GAYLORD        PTSUNNY   80  51  36 W14G29    29.90S
GRAYLING       MOSUNNY   79  52  39 W14G20    29.91S
HARBOR SPRINGS MOSUNNY   75  63  65 SW8       29.88S
HOUGHTON LAKE  MOSUNNY   81  54  39 NW15G25   29.91F
MANISTEE       SUNNY     79  57  47 W13       29.93S
OSCODA         MOSUNNY   85  51  31 W21G32    29.85R
PELLSTON       SUNNY     78  54  43 NW16      29.88R
ROGERS CITY    MOSUNNY   76  59  55 NW15G21   29.86S
TRAVERSE CITY  MOSUNNY   86  52  30 W21G32    29.88S
$$
MIZ007>008-015-302300-
EASTERN UPPER MICHIGAN

CITY           SKY/WX    TMP DP  RH WIND       PRES   REMARKS
KINROSS        PTSUNNY   72  54  53 NW20G26   29.86R
MACKINAC ISLAN SUNNY     73  52  46 W16G25    29.86R
MUNISING         N/A     74  58  57 N7        29.87S
$$
MIZ004>006-011>014-085-302300-
CENTRAL UPPER MICHIGAN

CITY           SKY/WX    TMP DP  RH WIND       PRES   REMARKS
MANISTIQUE     SUNNY     82  45  26 NW12G17   29.86S
ESCANABA       MOSUNNY   81  48  32 NW10G22   29.86S
MENOMINEE      PTSUNNY   79  54  41 NW6       29.90R
SAWYER-GWINN   MOSUNNY   79  46  31 W15       29.89S
$$
MIZ001>003-009>011-084-302300-
WESTERN UPPER MICHIGAN

CITY           SKY/WX    TMP DP  RH WIND       PRES   REMARKS
IRON MOUNTAIN  CLOUDY    78  51  38 W12       29.91R
HOUGHTON       SUNNY     77  55  46 W20G30    29.86F
COPPER HARBOR    N/A     78  52  40 NW10G22   29.82F
IRONWOOD       PTSUNNY   73  61  64 W8        29.89S
$$

ABBREVIATIONS USED IN REMARKS
   TC - TEMPERATURE IN CELSIUS
  WCI - WIND CHILL INDEX
   HX - HEAT INDEX
  VSB - VISIBILITY




USA.gov is the U.S. government's official web portal to all federal, state and local government web resources and services.